Etusivu
METAR-TAF:

METAR-TAF

Lentoasemat :

Orr Regional Airport

Orr, Minnesota, Yhdysvallat

Leveyspiiri: 48-01N, Pituuspiiri: 092-52W, korkeus merenpinnasta: 397 m

Tämänhetkinen sää

Tämä raportti tehtiin 13 minuuttia sitten, kello 00.34 UTC
Tuuli 6 kn luoteesta
Lämpötila -16°C
Kosteus 78%
Ilmanpaine 1031 hPa
Näkyvyys: 16.1 km
selkeää

METAR: KORB 120034Z AUTO 31006KT 10SM CLR M16/M19 A3046 RMK AO2

Aika: 18:47 (00:47 UTC)


TAF: puuttuu

Säähavainnot ja -ennusteet yli 4000 lentoasemalta (METAR- ja TAF-raportit).

Käytössä olevat sääasemat on merkitty karttaan keltaisilla ja punaisilla pisteillä.

Aseta hiiri pisteen päälle nähdäksesi sääaseman nimen.

Klikkaa sitten nähdäksesi säähavainnot ja -ennusteet.

Kartan vaihtaminen: klikkaa mustalla rastilla varustettuja vihreitä pisteitä, niin voit zoomata sisään; viivalla varustettua vihreää pistettä, niin voit zoomata ulos tai vihreitä nuolia, niin pääset viereisille kartoille.


METAR-TAF: